Showing default

FENGYUN 3F, 57490

Orbit data source: Space-Track

FENGYUN 3F, 57490 is a payload satellite owned by CNMSC (CN) in SSO that was launched on Thu, 03 Aug 2023 UTC via a CHANG ZHENG 4C launch vehicle from the Jiuquan Satellite Launch Center, China (JSC). Payload-class satellites include a variety of spacecraft equipped with specific instruments for various scientific and technological missions. These include communications satellites like Starlink; space stations such as the ISS; scientific satellites like the Hubble; Earth observation satellites from companies like Planet Labs, Umbra, and HawkEye 360; GPS; miniature CubeSats for education and research; and military/defense satellites.

Loading next visibility...
Identifier
57490, 2023-111A
Orbit
SSO
Country
Flag of CNCN / PRC
Related business
Manufacturer
SISE
Mission
Operational Civil Weather
Bus & Motor
FY-3, Unknown motor
Mass
2,450 kg wet, 2,250 kg dry
Launch date (UTC)
2023-08-03 (3 years ago)
Launch vehicle
CHANG ZHENG 4C
Launch site
Jiuquan Satellite Launch Center, China (JSC)
Object type
Payload
Rocket body
Debris
Shape & HBR
Box + 2 Pan, 5.0 m
Radar Cross Section
15.104 m², Large (>1 m²)

Expand to show TLE details & history
Last TLE update: 1 day ago

TLE from 1 day ago
0 FENGYUN 3F
1 57490U 23111A   26172.48399582  .00000011  00000-0  25698-4 0  9995
2 57490  98.6835 242.4127 0001582  90.3874 269.7484 14.19939702149475
Epoch: 2026-06-21T11:36Z
TLE epoch observation values (Epoch: 2026-06-21T11:36:57.238Z)
Latitude
-0.00003°
Longitude
158.4906°
Altitude
828.477 km
Speed
7.439 km/s
True Right ascension
16h 09m 39s
True Declination
0° 00' 00"
Sunlit
Object was in full shadow at epoch
Visualization orbit readout
Latitude
Unknown
Longitude
Unknown
Altitude
Unknown
Speed
Unknown
Apparent Right ascension
Unknown
Apparent Declination
Unknown
Sunlit
N/A
Visualization observer readout
Local Sidereal Time
23:08:49
Azimuth
Unknown
Elevation
Unknown
Doppler factor
Unknown
Orbital elements
Apogee altitude
823.853 km
Perigee altitude
821.575 km
Semi-major axis
7,200.851 km
Eccentricity
0.00016
Inclination
98.6835°
RAAN
242.4127°
Arg. of periapsis
90.3874°
True anomaly
269.73027°
Mean anomaly
269.7484°
Eccentric anomaly
269.73934°
Mean motion
3.55195 °/min
Orbital period
101.35 mins
BSTAR
0.000025698
Loading maneuver chart data...
Computing Atmospheric mass density...
Loading historical data...
Loading historical data...
Loading historical data...
Loading historical data...
Loading historical data...
Loading historical data...
Loading historical data...
Other satellites on launch #111 in the year 2023 (2023-08-03 UTC)

Documentation

Showing up to 5 results
|